Das Wetter in  D-61279 Heinzenberg / Taunus





Wetter Minimum- & Maximum-Werte im August 2012

Standort: Heinzenberg / Taunus - Höhe 297 m         8 24' 1" Ost 50 21' 51" Nord
(   3-stündige Aktualisierung    letzte Aktualisierung um 19:04 am 31.08.2012  )


Messgrösse

Minimum

Maximum

Durchschnitt

Temperatur West /
Luftfeuchte West
Anklicken für Monats-Diagramm

7,9 C

06:53
11.08.2012

20 %

18:07
16.08.2012

35,8 C

18:04
19.08.2012

97 %

05:59
06.08.2012

Temp

18,9 C

Feuchte

72 %

Temperatur Ost /
Luftfeuchte Ost
Anklicken für Monats-Diagramm

-19,9 C

07:24
24.08.2012

--

--
--

79,8 C

05:14
24.08.2012

--

--
--

21,1 C

--

Luftdruck Anklicken für Monats-Diagramm

1006,1 hPa

17:54
24.08.2012

1026,6 hPa

09:27
10.08.2012

1016,5 hPa

Taupunkt

-0,2 C

18:07
16.08.2012

22,1 C

12:55
20.08.2012

13,1 C

Windchill
( gefühlte Temperatur )

5,9 C

09:56
26.08.2012

35,8 C

18:04
19.08.2012

17,9 C

Windgeschwindigkeit /
Windrichtung
Anklicken für Monats-Diagramm

---

49,4 km/h / W-SW

11:06
26.08.2012

6,4 km/h
W-SW

Helligkeit /
Sonnenschein
Anklicken für Monats-Diagramm
Anklicken für Monats-Diagramm

Sonnenschein:

212:06 Stunden

Max: 12:50 Std am
01.08.2012

103 klux

14:29
24.08.2012

34 klux

Solarstrahlung Anklicken für Monats-Diagramm

---

705 W/m

14:29
24.08.2012

248 W/m

Regenmenge
    August 2012
Anklicken für Monats-Diagramm

Insgesamt 42,3 l/m

in 17:25 Stunden
an 14 Tagen

14,3 l/m

02:52
16.08.2012

Gesamtmenge

42,3 l/m

Regen-Tage
    August 2012
Anklicken für Monats-Diagramm

>   0 mm/Tag

>   2 mm/Tag

>   5 mm/Tag

> 10 mm/Tag

> 20 mm/Tag

14 Tage     
5 Tage     
3 Tage     
2 Tage     
0 Tage     

Eisige Tage August 2012 / 2011

Tmin ≤ -10C     

0 Tage

/

0 Tage

Eistage August 2012 / 2011

Tmax <     0C     

0 Tage

/

0 Tage

Frosttage August 2012 / 2011

Tmin ≤     0C     

0 Tage

/

0 Tage

Kalte Tage August 2012 / 2011

Tmax <   10C     

0 Tage

/

0 Tage

Warme Tage August 2012 / 2011

Tmax ≥   20C     

28 Tage

/

22 Tage

Sommertage August 2012 / 2011

Tmax ≥   25C     

19 Tage

/

13 Tage

Heisse Tage August 2012 / 2011

Tmax ≥   30C     

4 Tage

/

4 Tage


Monatsdiagramm August 2012

Die Kurven zeigen den Durchschnittswert des jeweiligen Tages an


Wetter-Monatsübersicht August 2012
Datum
  Temperatur
   Luftdruck
   Wind
  Regen
   Luftfeuchte
   Helligkeit

Sonnen-
schein


Temp.

Min.
Temp.

Max.
Temp.


Luftdruck

Min.
Luftdruck

Max.
Luftdruck

-Geschw.
Haupt-Richtg.

Max.
Wind

Menge /
Dauer


Feuchte

Min.
Feuchte

Max.
Feuchte


Helligkeit

Max.
Helligkeit

1.
August
20,2 C10,8 C
06:39
29,4 C
18:44
1014,7 hPa1009,5 hPa
18:54
1019,4 hPa
00:09
7,4 km/h
O-SO
32,0 km/h
13:14  
---
67 %31 %
17:25
94 %
07:34
44,7 klux78,7 klux
13:14
12:50 Std 
2.
August
20,9 C16,5 C
23:51
25,1 C
13:55
1012,9 hPa1009,5 hPa
01:35
1016,1 hPa
23:51
12,7 km/h
W-SW
40,2 km/h
10:40  
---
69 %53 %
13:20
84 %
03:45
33,1 klux97,0 klux
12:40
5:55 Std 
3.
August
18,8 C13,6 C
06:56
25,4 C
15:51
1016,2 hPa1014,2 hPa
18:51
1017,5 hPa
06:56
5,0 km/h
SW
27,1 km/h
15:41  
---
72 %44 %
14:26
93 %
07:56
33,3 klux98,8 klux
12:06
7:35 Std 
4.
August
18,4 C11,2 C
06:32
26,8 C
18:22
1014,4 hPa1010,8 hPa
18:37
1017,4 hPa
01:07
3,6 km/h
SW
22,9 km/h
12:12  
---
5 Minuten
71 %42 %
18:17
92 %
07:37
34,7 klux101,0 klux
13:42
6:05 Std 
5.
August
19,1 C14,7 C
05:13
25,4 C
18:33
1009,9 hPa1007,0 hPa
19:53
1012,1 hPa
01:48
1,1 km/h
O-SO
16,8 km/h
16:03  
---
20 Minuten
78 %58 %
18:38
90 %
07:53
23 klux87 klux
13:58
2:20 Std 
6.
August
18,0 C15,1 C
23:59
21,8 C
18:09
1011,8 hPa1007,6 hPa
00:04
1017,3 hPa
23:59
13,8 km/h
SW
39,2 km/h
16:59  
11,7 l/m
1:55 Stunden
78 %54 %
16:54
97 %
05:59
29,3 klux101,0 klux
13:24
4:45 Std 
7.
August
16,4 C13,1 C
07:14
21,3 C
17:44
1020,5 hPa1017,3 hPa
00:09
1023,5 hPa
23:10
12,7 km/h
W
38,7 km/h
13:44  
---
10 Minuten
72 %52 %
17:49
86 %
07:09
29 klux84 klux
13:09
3:45 Std 
8.
August
16,4 C10,2 C
06:50
22,6 C
17:25
1024,0 hPa1022,6 hPa
17:25
1025,7 hPa
09:00
5,1 km/h
W
25,7 km/h
13:00  
---
74 %52 %
16:50
91 %
08:05
34,7 klux98,6 klux
14:30
6:10 Std 
9.
August
17,5 C12,6 C
04:11
24,3 C
17:11
1024,1 hPa1022,4 hPa
17:11
1025,5 hPa
23:47
4,2 km/h
W-NW
20,5 km/h
13:46  
---
76 %47 %
17:16
94 %
08:21
30,9 klux93,9 klux
12:06
4:30 Std 
10.
August
16,7 C11,2 C
06:47
24,0 C
18:22
1025,1 hPa1023,5 hPa
18:22
1026,6 hPa
09:27
2,8 km/h
N-NO
18,3 km/h
17:12  
---
70 %42 %
17:42
92 %
05:32
40,8 klux94,6 klux
13:32
10:20 Std 
11.
August
15,6 C7,9 C
06:53
24,1 C
18:58
1022,6 hPa1018,6 hPa
19:48
1026,0 hPa
00:48
2,6 km/h
NO
20,1 km/h
17:23  
---
69 %43 %
17:18
92 %
08:13
40,7 klux99,9 klux
13:53
10:25 Std 
12.
August
16,9 C8,4 C
06:28
26,5 C
18:39
1016,5 hPa1012,9 hPa
19:08
1019,9 hPa
01:48
5,8 km/h
O-SO
27,6 km/h
13:58  
---
64 %31 %
17:23
91 %
07:48
43 klux81 klux
13:58
11:56 Std 
13.
August
18,2 C9,2 C
06:59
28,0 C
18:14
1014,2 hPa1011,7 hPa
18:14
1015,9 hPa
06:59
2,1 km/h
SO
19,1 km/h
13:59  
---
66 %33 %
17:24
91 %
07:44
42,1 klux83,1 klux
14:09
11:00 Std 
14.
August
20,2 C13,8 C
06:20
27,4 C
13:40
1013,7 hPa1011,7 hPa
16:10
1014,8 hPa
23:46
0,8 km/h
W
11,6 km/h
15:30  
---
68 %42 %
13:40
87 %
07:15
35,0 klux77,8 klux
13:30
6:10 Std 
15.
August
22,4 C15,8 C
05:31
31,0 C
16:56
1011,5 hPa1008,5 hPa
18:31
1014,8 hPa
00:46
6,1 km/h
O-SO
31,6 km/h
13:56  
---
63 %32 %
14:11
88 %
06:26
37,2 klux90,3 klux
11:31
6:40 Std 
16.
August
20,3 C15,8 C
08:42
26,6 C
18:02
1017,2 hPa1010,4 hPa
00:07
1020,3 hPa
23:58
5,7 km/h
W-NW
29,1 km/h
01:52  
14,3 l/m
3:30 Stunden
73 %20 %
18:07
95 %
06:37
39,8 klux91,6 klux
13:47
9:30 Std 
17.
August
19,7 C12,0 C
06:48
28,7 C
18:08
1020,3 hPa1018,8 hPa
18:08
1021,8 hPa
06:48
2,4 km/h
SO
20,3 km/h
12:23  
---
69 %40 %
17:43
92 %
08:23
37,9 klux87,7 klux
13:23
9:00 Std 
18.
August
22,7 C13,4 C
06:38
32,8 C
17:48
1019,5 hPa1017,3 hPa
17:48
1021,6 hPa
06:38
7,1 km/h
O-SO
24,3 km/h
13:13  
---
65 %36 %
17:18
90 %
06:13
42,7 klux76,8 klux
13:08
12:40 Std 
19.
August
25,1 C15,2 C
06:34
35,8 C
18:04
1018,0 hPa1014,9 hPa
18:04
1020,4 hPa
06:34
6,2 km/h
SW
26,4 km/h
14:29  
---
63 %29 %
16:29
90 %
06:49
40,5 klux72,9 klux
13:19
11:05 Std 
20.
August
23,1 C17,6 C
06:55
28,7 C
13:00
1018,3 hPa1016,6 hPa
01:30
1020,7 hPa
22:36
5,1 km/h
W
29,1 km/h
13:50  
1,1 l/m
45 Minuten
75 %54 %
18:05
89 %
07:40
27,1 klux89,4 klux
12:55
3:40 Std 
21.
August
22,4 C15,6 C
07:21
30,3 C
18:26
1016,7 hPa1011,8 hPa
20:16
1021,2 hPa
03:26
2,6 km/h
SW
17,0 km/h
13:11  
---
78 %51 %
18:21
94 %
07:51
31,1 klux87,5 klux
12:46
4:25 Std 
22.
August
19,8 C15,0 C
23:47
23,8 C
15:42
1016,2 hPa1012,6 hPa
02:02
1018,3 hPa
23:47
8,5 km/h
W-NW
30,0 km/h
12:17  
---
69 %48 %
15:47
90 %
03:57
38,9 klux78,8 klux
14:12
8:10 Std 
23.
August
17,7 C9,6 C
06:38
26,7 C
18:33
1015,6 hPa1009,7 hPa
22:44
1019,0 hPa
06:38
1,4 km/h
W
18,1 km/h
16:13  
---
5 Minuten
66 %34 %
17:28
92 %
08:28
41,0 klux82,3 klux
13:38
11:15 Std 
24.
August
17,7 C13,6 C
06:44
22,7 C
15:59
1007,5 hPa1006,1 hPa
17:54
1011,1 hPa
02:09
3,1 km/h
W-NW
20,2 km/h
14:39  
9,7 l/m
3:40 Stunden
85 %66 %
16:29
96 %
07:14
21,6 klux103,0 klux
14:29
1:20 Std 
25.
August
18,8 C14,0 C
06:45
24,1 C
16:40
1007,9 hPa1006,5 hPa
00:40
1009,9 hPa
23:41
15,1 km/h
SW
45,8 km/h
14:55  
2,6 l/m
2:30 Stunden
76 %47 %
16:45
93 %
03:10
33 klux93 klux
12:15
5:46 Std 
26.
August
15,6 C14,4 C
23:27
16,8 C
00:36
1013,3 hPa1009,8 hPa
00:36
1020,5 hPa
23:27
26,4 km/h
W-SW
49,4 km/h
11:06  
---
20 Minuten
79 %72 %
12:01
86 %
23:47
15,1 klux63,9 klux
11:31
25 Min 
27.
August
16,7 C10,5 C
06:42
25,2 C
17:57
1020,6 hPa1017,3 hPa
18:42
1023,1 hPa
10:42
4,3 km/h
O-SO
24,3 km/h
18:27  
---
72 %41 %
18:17
95 %
08:32
39,6 klux89,1 klux
12:27
10:24 Std 
28.
August
17,6 C11,0 C
05:08
26,2 C
14:08
1016,9 hPa1014,9 hPa
09:48
1019,2 hPa
23:58
6,6 km/h
W-SW
33,7 km/h
13:58  
---
5 Minuten
69 %42 %
13:58
86 %
05:13
31,8 klux80,9 klux
14:03
4:40 Std 
29.
August
20,0 C14,0 C
06:53
27,8 C
17:13
1017,4 hPa1013,8 hPa
18:48
1020,4 hPa
03:53
5,3 km/h
SW
28,8 km/h
14:38  
2,3 l/m
2:20 Stunden
74 %45 %
16:33
95 %
08:03
35,6 klux91,9 klux
13:48
6:50 Std 
30.
August
17,7 C15,1 C
23:55
19,6 C
10:49
1016,3 hPa1014,8 hPa
00:19
1017,3 hPa
23:55
7,4 km/h
W-SW
25,4 km/h
18:54  
---
10 Minuten
78 %65 %
19:24
92 %
07:59
16,2 klux41,4 klux
11:59
--- 
31.
August
14,2 C11,2 C
07:15
18,1 C
17:20
1018,4 hPa1016,6 hPa
05:30
1022,8 hPa
23:36
6,6 km/h
W-NW
22,8 km/h
21:10  
0,6 l/m
1:30 Stunden
80 %62 %
11:50
90 %
08:00
21,9 klux88,5 klux
11:50
2:30 Std 



August
2012

Temperatur

  

Luftdruck

  

Wind

  

Regen

  

Luftfeuchte

  

Helligkeit

Sonnen-
schein

Min

Max

Min

Max

Max

Max

Min

Max

Max

Max

18,9 C

7,9 C

06:53 Uhr
11.08.2012

35,8 C

18:04 Uhr
19.08.2012

1016,5 hPa

1006,1 hPa

17:54 Uhr
24.08.2012

1026,6 hPa

09:27 Uhr
10.08.2012

6,4 km/h

W-SW

49,4 km/h

11:06 Uhr
26.08.2012

14,3 l/m

3:30 Stunden
16.08.2012

72 %

20 %

18:07 Uhr
16.08.2012

97 %

05:59 Uhr
06.08.2012

33,7 klux

103,0 klux

14:29 Uhr
24.08.2012

12:50 Std

am
01.08.2012

Gesamt

Gesamt

42,3 l/m

14 Tage
17:25 h

212:06 Std


Wetter-Diagramme August 2012     Heinzenberg / Taunus   
TemperaturLuftfeuchte
SolarstrahlungLuftdruck
HelligkeitSonnenschein
RegenmengeRegendauer
Wind-GeschwindigkeitWind-Richtung